TimeMST,TemperatureF,Dew PointF,Humidity,Sea Level PressureIn,VisibilityMPH,Wind Direction,Wind SpeedMPH,Gust SpeedMPH,PrecipitationIn,Events,Conditions,WindDirDegrees,DateUTC
12:53 AM,33.1,23.0,66,30.23,10.0,NW,26.5,33.4,N/A,,Overcast,320,2014-01-14 07:53:00
1:53 AM,32.0,25.0,75,30.30,3.0,NW,25.3,31.1,0.00,Snow,Light Snow,320,2014-01-14 08:53:00
2:17 AM,30.9,26.1,82,30.25,1.8,WNW,17.3,-,0.00,Snow,Light Snow,300,2014-01-14 09:17:00
2:38 AM,32.0,26.1,79,30.26,2.0,NW,18.4,29.9,0.00,Snow,Light Snow,320,2014-01-14 09:38:00
2:44 AM,32.0,25.0,75,30.26,3.0,NW,17.3,25.3,0.00,Snow,Light Snow,320,2014-01-14 09:44:00
2:53 AM,32.0,24.1,73,30.32,5.0,NW,17.3,32.2,0.00,Snow,Light Snow,320,2014-01-14 09:53:00
3:53 AM,32.0,23.0,69,30.36,3.0,NW,19.6,32.2,0.00,Snow,Light Snow,320,2014-01-14 10:53:00
4:53 AM,30.9,24.1,76,30.38,7.0,NW,17.3,-,0.00,Snow,Light Snow,310,2014-01-14 11:53:00
5:53 AM,30.9,24.1,76,30.42,5.0,NW,19.6,-,0.00,Snow,Light Snow,310,2014-01-14 12:53:00
6:14 AM,30.9,24.1,76,30.36,1.8,WNW,18.4,-,0.00,Snow,Light Snow,300,2014-01-14 13:14:00
6:24 AM,30.9,24.1,76,30.36,1.5,NW,21.9,-,0.00,Snow,Light Snow,310,2014-01-14 13:24:00
6:53 AM,30.9,24.1,76,30.45,1.8,NW,18.4,-,0.00,Snow,Light Snow,310,2014-01-14 13:53:00
7:13 AM,30.9,24.1,76,30.38,2.5,WNW,15.0,-,0.00,Snow,Light Snow,300,2014-01-14 14:13:00
7:17 AM,30.9,24.1,76,30.38,4.0,WNW,17.3,-,0.00,Snow,Light Snow,300,2014-01-14 14:17:00
7:41 AM,30.0,24.1,79,30.39,1.8,WNW,19.6,-,0.00,Snow,Light Snow,300,2014-01-14 14:41:00
7:53 AM,30.0,24.1,79,30.47,2.5,WNW,17.3,-,0.00,Snow,Light Snow,290,2014-01-14 14:53:00
8:06 AM,30.0,25.0,82,30.39,1.5,West,15.0,-,0.00,Snow,Light Snow,280,2014-01-14 15:06:00
8:18 AM,30.0,25.0,82,30.39,1.0,WNW,13.8,-,0.00,Snow,Light Snow,290,2014-01-14 15:18:00
8:24 AM,30.9,25.0,79,30.39,1.5,West,12.7,-,0.00,Snow,Light Snow,280,2014-01-14 15:24:00
8:32 AM,30.9,25.0,79,30.41,2.5,West,13.8,-,0.00,Snow,Light Snow,280,2014-01-14 15:32:00
8:38 AM,30.9,25.0,79,30.41,1.0,West,13.8,-,0.00,Snow,Light Snow,280,2014-01-14 15:38:00
8:46 AM,30.9,25.0,79,30.41,0.8,West,13.8,-,0.00,Snow,Light Snow,280,2014-01-14 15:46:00
8:53 AM,30.9,25.0,79,30.51,1.0,WNW,16.1,-,0.00,Snow,Light Snow,290,2014-01-14 15:53:00
9:10 AM,30.9,25.0,79,30.43,1.2,WNW,10.4,-,0.00,Snow,Light Snow,290,2014-01-14 16:10:00
9:21 AM,30.9,25.0,79,30.43,1.2,WNW,11.5,-,0.00,Snow,Light Snow,290,2014-01-14 16:21:00
9:53 AM,30.9,25.0,79,30.53,2.0,WNW,11.5,-,0.00,Snow,Light Snow,290,2014-01-14 16:53:00
10:07 AM,30.9,26.1,82,30.44,1.5,West,6.9,-,0.00,Snow,Light Snow,280,2014-01-14 17:07:00
10:19 AM,30.9,25.0,79,30.45,2.5,West,6.9,-,0.00,Snow,Light Snow,260,2014-01-14 17:19:00
10:26 AM,30.9,25.0,79,30.45,4.0,West,8.1,-,0.00,Snow,Light Snow,260,2014-01-14 17:26:00
10:43 AM,30.9,25.0,79,30.45,2.0,West,6.9,-,0.00,Snow,Light Snow,270,2014-01-14 17:43:00
10:53 AM,30.9,25.0,79,30.55,2.5,West,5.8,-,0.00,Snow,Light Snow,270,2014-01-14 17:53:00
11:21 AM,32.0,25.0,75,30.45,1.8,WSW,4.6,-,0.00,Snow,Light Snow,250,2014-01-14 18:21:00
11:35 AM,32.0,26.1,79,30.45,3.0,WSW,3.5,-,0.00,Snow,Light Snow,250,2014-01-14 18:35:00
11:46 AM,33.1,27.0,78,30.44,4.0,Calm,Calm,-,0.00,Snow,Light Snow,0,2014-01-14 18:46:00
11:53 AM,33.1,25.0,72,30.53,4.0,Calm,Calm,-,0.00,Snow,Light Snow,0,2014-01-14 18:53:00
12:03 PM,34.0,26.1,73,30.44,7.0,Calm,Calm,-,0.00,Snow,Light Snow,0,2014-01-14 19:03:00
12:41 PM,35.1,25.0,67,30.43,10.0,Calm,Calm,-,0.00,,Overcast,0,2014-01-14 19:41:00
12:53 PM,35.1,24.1,64,30.51,10.0,Calm,Calm,-,0.00,,Overcast,0,2014-01-14 19:53:00
1:53 PM,35.1,25.0,67,30.50,10.0,East,4.6,-,N/A,,Mostly Cloudy,100,2014-01-14 20:53:00
2:48 PM,35.6,24.8,65,30.39,10.0,SSE,6.9,-,N/A,,Mostly Cloudy,160,2014-01-14 21:48:00
2:53 PM,35.1,24.1,64,30.48,10.0,South,6.9,-,N/A,,Mostly Cloudy,190,2014-01-14 21:53:00
3:17 PM,33.1,24.1,70,30.39,10.0,South,4.6,-,N/A,,Partly Cloudy,170,2014-01-14 22:17:00
3:34 PM,35.1,25.0,67,30.39,10.0,SSE,5.8,-,N/A,,Mostly Cloudy,160,2014-01-14 22:34:00
3:49 PM,33.8,23.0,65,30.40,10.0,South,6.9,-,N/A,,Scattered Clouds,170,2014-01-14 22:49:00
3:53 PM,34.0,23.0,64,30.49,10.0,South,5.8,-,N/A,,Scattered Clouds,170,2014-01-14 22:53:00
4:53 PM,30.0,23.0,75,30.51,10.0,Calm,Calm,-,N/A,,Clear,0,2014-01-14 23:53:00
5:53 PM,27.0,21.9,81,30.51,10.0,South,4.6,-,N/A,,Clear,180,2014-01-15 00:53:00
6:53 PM,25.0,19.9,81,30.50,10.0,East,6.9,-,N/A,,Clear,100,2014-01-15 01:53:00
7:53 PM,24.1,19.0,81,30.49,10.0,ESE,4.6,-,N/A,,Mostly Cloudy,110,2014-01-15 02:53:00
8:53 PM,21.9,17.1,82,30.47,10.0,ESE,3.5,-,N/A,,Clear,120,2014-01-15 03:53:00
9:53 PM,18.0,14.0,84,30.46,10.0,South,3.5,-,N/A,,Clear,180,2014-01-15 04:53:00
10:53 PM,18.0,12.0,78,30.45,10.0,Calm,Calm,-,N/A,,Clear,0,2014-01-15 05:53:00
11:53 PM,12.9,7.0,77,30.44,10.0,WNW,3.5,-,N/A,,Clear,290,2014-01-15 06:53:00